Regional Weather Roundup
Issued by NWS State College, PA

Home | Current Version | Previous Version | Graphics & Text | Print | Product List | Glossary On
Versions: 1 2 3 4 5 6 7 8 9 10 11 12 13 14 15 16 17 18 19 20 21 22 23 24 25 26 27 28 29 30 31 32 33 34 35 36 37 38 39 40 41 42 43 44 45 46 47 48 49 50
000
ASUS41 KCTP 192310
RWRCTP

REGIONAL WEATHER ROUNDUP
NATIONAL WEATHER SERVICE STATE COLLEGE PA
600 PM EST FRI JAN 19 2018

Note: "fair" indicates few or no clouds below 12,000 feet with no
significant weather and/or obstructions to visibility.

* = STATION THAT DOES NOT REPORT PRECIPITATION /E.G. RAIN...SNOW...ETC/
    THUNDER OR FOG.

PAZ002>004-007>009-013>016-020>023-029>032-200000-
WESTERN PENNSYLVANIA

CITY           SKY/WX    TMP DP  RH WIND       PRES   REMARKS
ERIE           FAIR      37  19  48 S22G33    29.88F
MEADVILLE      FAIR      32  18  56 S13       29.92F
FRANKLIN*      FAIR      33  17  51 SW16G22   29.94S
NEW CASTLE     FAIR      35  18  49 S6        29.99R
BEAVER COUNTY  CLEAR     34  19  55 S8        29.99R
BUTLER*        FAIR      34  17  50 S8        30.00R
PITTSBURGH INT FAIR      37  18  46 SW7       30.00S
PITTSBURGH     FAIR      37  16  42 SW13      30.01R
INDIANA*       CLEAR     32  18  55 SW8       30.03R
LATROBE        CLEAR     36  18  48 SW8       30.03S
WASHINGTON CO* NOT AVBL
$$

PAZ004>006-010>012-017>019-024>028-033>037-041-042-045-046-049>053-200000-
CENTRAL PENNSYLVANIA

CITY           SKY/WX    TMP DP  RH WIND       PRES   REMARKS
BRADFORD       FAIR      32  18  56 S8        29.89F
DUBOIS         FAIR      31  16  54 SW8       29.94S
CLEARFIELD     FAIR      34  17  50 SW7       29.96S
JOHNSTOWN      FAIR      34  17  50 SW16      29.95S
ALTOONA        FAIR      41  22  46 W13G21    29.97S
STATE COLLEGE  CLEAR     36  19  51 SW9       29.96S
WILLIAMSPORT   FAIR      32  20  61 CALM      29.95S
SELINSGROVE    FAIR      31  21  66 CALM      29.98R
FT INDIANTOWN  FAIR      32  22  66 CALM      29.99R
CAPITAL CITY   FAIR      43  19  38 W3        30.00S
HARRISBURG     FAIR      39  23  52 SW7       30.00R
YORK           FAIR      43  19  38 SW8       30.00S
$$

PAZ038>040-043-044-047-048-054-055-060>062-067>071-200000-
EASTERN PENNSYLVANIA

CITY           SKY/WX    TMP DP  RH WIND       PRES   REMARKS
SCRANTON       FAIR      34  18  52 S3        29.92F
MOUNT POCONO   FAIR      30  17  58 W10       29.89R
ALLENTOWN      FAIR      31  18  58 SW6       29.98S
QUAKERTOWN*    FAIR      32  19  59 CALM      30.00R
READING        FAIR      36  22  56 SW6       29.99S
LANCASTER      FAIR      40  21  46 CALM      30.00S
COATESVILLE    FAIR      37  19  48 CALM      30.01R
POTTSTOWN      FAIR      38  19  46 SW7       30.01S
BLUE BELL      FAIR      32  21  64 CALM      30.02R
DOYLESTOWN     FAIR      36  18  48 SW6       29.99R
WILLOW GROVE   NOT AVBL
NORTH PHILA    FAIR      41  19  41 CALM      30.03R
PHILADELPHIA   FAIR      40  19  43 SW7       30.02S
$$




USA.gov is the U.S. government's official web portal to all federal, state and local government web resources and services.